Terminal Aerodrome Forecast
Issued by NWS

Home | Current Version | Previous Version | Text Only | Print | Product List | Glossary On
Versions: 1 2 3 4 5 6 7 8 9 10 11 12 13 14 15 16 17 18 19 20 21 22 23 24 25 26 27 28 29 30 31 32 33
000
FTUS43 KDMX 010520
TAFOTM
TAF
KOTM 010520Z 0106/0206 11010KT P6SM FEW030 SCT060 OVC100
     FM011100 12010KT 5SM BR VCSH SCT025 OVC040
     FM011500 14009KT 6SM BR VCTS SCT018CB BKN035
     FM012300 14007KT 5SM BR SCT025 BKN040=

USA.gov is the U.S. government's official web portal to all federal, state and local government web resources and services.